Fairfield, CA

7:24 PM PDT on July 22, 2017 (GMT -0700)
Travis Air Force Base

Weather History for KSUU - March, 2014

Change the Weather History Date:

Tuesday, March 25, 2014

  Actual Average Record
Temperature  
Mean Temperature 54 °F -  
Max Temperature 64 °F 66 °F 78 °F (1997)
Min Temperature 46 °F 44 °F 37 °F (2005)
Degree Days  
Heating Degree Days 10    
Growing Degree Days 4 (Base 50)    
Moisture  
Dew Point 53 °F    
Average Humidity 91    
Maximum Humidity 100    
Minimum Humidity 63    
Precipitation  
Precipitation 0.02 in - - ()
Sea Level Pressure  
Sea Level Pressure 29.93 in    
Wind  
Wind Speed 15 mph (WSW)    
Max Wind Speed 24 mph    
Max Gust Speed 33 mph    
Visibility 10 miles    
Events Rain    
Averages and records for this station are not official NWS values.
T = Trace of Precipitation, MM = Missing Value Source: NWS Daily Summary

Daily Weather History Graph

Daily Weather History Graph

Search for Another Location

Airport or City:

Trip Planner

Search our weather history database for the weather conditions in past years. The results will help you decide how hot, cold, wet, or windy it might be!

Date:

Astronomy

Mar. 25, 2014 Rise Set
Actual Time 7:03 AM PDT 7:24 PM PDT
Civil Twilight 6:36 AM PDT 7:50 PM PDT
Nautical Twilight 6:05 AM PDT 8:22 PM PDT
Astronomical Twilight 5:34 AM PDT 8:53 PM PDT
Moon 3:25 AM PDT (3/25) 2:05 PM PDT (3/25)
Length of Visible Light 13h 14m
Length of Day
12h 21m
Waning Crescent, 31% of the Moon is Illuminated
Mar 25
Waning Crescent
Mar 30
New
Apr 7
First Quarter
Apr 15
Full
Apr 22
Last Quarter

Hourly Weather History & Observations

Time (PDT) Temp. Dew Point Humidity Pressure Visibility Wind Dir Wind Speed Gust Speed Precip Events Conditions
12:58 AM 50.2 °F 37.9 °F 63% 30.01 in 10.0 mi SW 15.0 mph - N/A   Clear
1:58 AM 49.3 °F 37.8 °F 65% 30.00 in 10.0 mi SW 12.7 mph - N/A   Clear
2:58 AM 48.2 °F 37.0 °F 65% 29.98 in 10.0 mi SW 16.1 mph - N/A   Clear
3:58 AM 49.1 °F 39.7 °F 70% 29.98 in 10.0 mi SW 17.3 mph - N/A   Clear
4:58 AM 46.8 °F 42.8 °F 86% 29.97 in 10.0 mi SW 11.5 mph - N/A   Clear
5:58 AM 46.9 °F 45.3 °F 94% 29.96 in 10.0 mi WSW 15.0 mph - N/A   Clear
6:58 AM 49.1 °F 48.9 °F 99% 29.95 in 10.0 mi WSW 16.1 mph - N/A   Clear
7:58 AM 50.2 °F 50.0 °F 99% 29.97 in 10.0 mi WSW 19.6 mph - N/A   Clear
8:58 AM 52.0 °F 48.9 °F 89% 29.97 in 10.0 mi WSW 24.2 mph 33.4 mph N/A   Clear
9:58 AM 53.6 °F 52.3 °F 95% 29.98 in 10.0 mi SW 23.0 mph - N/A   Partly Cloudy
10:58 AM 56.5 °F 55.0 °F 95% 29.99 in 10.0 mi SW 20.7 mph - N/A   Partly Cloudy
11:58 AM 58.3 °F 56.8 °F 95% 29.98 in 10.0 mi SW 15.0 mph - N/A   Partly Cloudy
12:51 PM 59.0 °F 57.2 °F 94% 29.96 in 10.0 mi WSW 16.1 mph - N/A Rain Rain
12:58 PM 57.7 °F 57.6 °F 99% 29.98 in 8.0 mi WSW 9.2 mph - 0.00 in Rain Rain
1:11 PM 59.0 °F 59.0 °F 100% 29.95 in 10.0 mi WSW 8.1 mph - N/A   Scattered Clouds
1:58 PM 61.9 °F 61.3 °F 98% 29.95 in 10.0 mi WSW 10.4 mph - 0.01 in   Scattered Clouds
2:53 PM 60.8 °F 60.8 °F 100% 29.90 in 10.0 mi WSW 16.1 mph 24.2 mph N/A   Mostly Cloudy
2:54 PM 60.8 °F 59.0 °F 94% 29.90 in 10.0 mi WSW 15.0 mph 24.2 mph N/A Rain Light Rain
2:58 PM 60.3 °F 59.7 °F 98% 29.92 in 10.0 mi WSW 15.0 mph 24.2 mph 0.01 in Rain Light Rain
3:08 PM 59.0 °F 59.0 °F 100% 29.90 in 10.0 mi WSW 15.0 mph - N/A   Light Drizzle
3:18 PM 60.8 °F 60.8 °F 100% 29.89 in 10.0 mi WSW 12.7 mph - N/A   Light Drizzle
3:19 PM 60.8 °F 60.8 °F 100% 29.89 in 10.0 mi WSW 11.5 mph - N/A   Mostly Cloudy
3:58 PM 62.4 °F 59.7 °F 91% 29.89 in 10.0 mi WSW 10.4 mph - 0.00 in   Mostly Cloudy
4:58 PM 63.0 °F 56.5 °F 79% 29.88 in 10.0 mi WSW 15.0 mph - N/A   Partly Cloudy
5:58 PM 61.9 °F 56.5 °F 82% 29.87 in 10.0 mi WSW 15.0 mph - N/A   Mostly Cloudy
6:58 PM 59.9 °F 52.9 °F 78% 29.86 in 10.0 mi West 12.7 mph - N/A   Clear
7:58 PM 56.7 °F 53.2 °F 88% 29.86 in 10.0 mi WSW 11.5 mph - N/A   Clear
8:58 PM 55.0 °F 54.7 °F 99% 29.86 in 10.0 mi WSW 15.0 mph - N/A   Clear
9:55 PM 52.9 °F 52.9 °F 100% 29.85 in 10.0 mi SW 8.1 mph - N/A   Partly Cloudy
10:58 PM 54.5 °F 54.1 °F 99% 29.86 in 10.0 mi SW 8.1 mph - N/A   Overcast
11:42 PM 53.6 °F 51.8 °F 94% 29.84 in 10.0 mi WSW 6.9 mph - N/A   Overcast
11:58 PM 52.7 °F 52.5 °F 99% 29.85 in 10.0 mi West 6.9 mph - N/A   Clear